Regional Weather Roundup
Issued by NWS Mt. Holly, NJ

Home | Current Version | Previous Version | Text Only | Print | Product List | Glossary On
Versions: 1 2 3 4 5 6 7 8 9 10 11 12 13 14 15 16 17 18 19 20 21 22 23 24 25 26 27
000
ASUS41 KPHI 231512
RWRPHI

REGIONAL WEATHER ROUNDUP
NATIONAL WEATHER SERVICE MOUNT HOLLY NJ
1100 AM EDT SUN APR 23 2017

NOTE:  "FAIR" INDICATES FEW OR NO CLOUDS BELOW 12,000 FEET WITH NO
SIGNIFICANT WEATHER AND/OR OBSTRUCTIONS TO VISIBILITY.

 * = STATION DOES NOT REPORT PRECIPITATION (E.G. RAIN, SNOW, ETC.)
        OR FOG.

NJZ015>026-231600-
SOUTHERN NEW JERSEY

CITY           SKY/WX    TMP DP  RH WIND       PRES   REMARKS
POMONA         PTSUNNY   57  43  59 E13G21    30.13R
WILDWOOD*      CLOUDY    53  44  71 E16       30.14R
MILLVILLE      CLOUDY    56  43  61 VRB6      30.13R
WRIGHTSTOWN    MOSUNNY   56  41  57 NE8       30.16R
MOUNT HOLLY    SUNNY     56  39  53 N6        30.14R
TRENTON        SUNNY     56  38  50 VRB3      30.13S

$$
NJZ001>014-231600-
NORTHERN NEW JERSEY

CITY           SKY/WX    TMP DP  RH WIND       PRES   REMARKS
SUSSEX         SUNNY     55  39  54 E5        30.13S
ANDOVER*         N/A     53  35  50 NE3       30.13S
MORRISTOWN     MOSUNNY   57  36  44 NE9       30.14S
NEWARK         MOSUNNY   56  36  47 NE7       30.13S
TETERBORO      SUNNY     56  36  47 VRB7      30.13R
CALDWELL       SUNNY     57  36  45 E8        30.14S
SOMERVILLE     SUNNY     58  36  43 VRB5      30.12S
ALLAIRE*       SUNNY     54  36  50 VRB7      30.14S
TOMS RIVER*    MOSUNNY   55  41  59 E8        30.15R

$$
PAZ043-044-047-054-055-060>062-066>071-231600-
EASTERN PENNSYLVANIA

CITY           SKY/WX    TMP DP  RH WIND       PRES   REMARKS
PHILADELPHIA   MOSUNNY   57  40  52 E7        30.15R
NORTH PHILA    SUNNY     57  39  51 CALM      30.16R
BLUE BELL*     SUNNY     54  39  58 CALM      30.16R
DOYLESTOWN     SUNNY     57  37  47 NE7       30.13R
QUAKERTOWN*    SUNNY     55  36  47 E5        30.14S
PERKASIE*      FAIR      55  36  47 NE6       30.14S
POTTSTOWN      SUNNY     54  36  50 E3        30.15R
LANCASTER      SUNNY     54  41  61 E5        30.14R
COATESVILLE    SUNNY     54  37  54 VRB5      30.15R
READING        SUNNY     55  38  52 NE9       30.13S
ALLENTOWN      SUNNY     56  36  47 VRB7      30.14S
MOUNT POCONO   SUNNY     52  31  44 NE7       30.11R
HAZLETON       SUNNY     54  34  47 N3        30.15R
LEHIGHTON      FAIR      54  36  50 E5        30.15S
WILKES BARRE   SUNNY     55  37  50 N5        30.13S

$$
DEZALL-MDZ008-012-015-019-020-231600-
DELAWARE AND EASTERN MARYLAND

CITY           SKY/WX    TMP DP  RH WIND       PRES   REMARKS
WILMINGTON     SUNNY     56  40  55 NE6       30.14R
DOVER          CLOUDY    55  51  88 E9        30.13R
GEORGETOWN     CLOUDY    54  43  66 MISG      30.13R
EASTON         PTSUNNY   55  41  58 E7        30.16S
ABERDEEN       MOSUNNY   56  40  56 NE5       30.15S
PATUXENT       CLOUDY    53  46  77 NE7       30.13R
OCEAN CITY     MOSUNNY   53  45  74 NE12G20   30.13R
WALLOPS ISLAND PTSUNNY   54  47  77 NE18      30.11R
CAMBRIDGE      SUNNY     54  45  71 NE7       30.13R
SALISBURY      CLOUDY    54  46  74 NE12      30.11R

$$
PAZ001-021-NYZ056-072-MDZ011-DCZ001-231600-
OTHER NEARBY LOCATIONS

CITY           SKY/WX    TMP DP  RH WIND       PRES   REMARKS
HARRISBURG     MOSUNNY   56  38  50 N7        30.14R
STATE COLLEGE  SUNNY     52  37  58 CALM      30.15S
WILLIAMSPORT   SUNNY     54  36  50 VRB3      30.14S
BINGHAMTON     SUNNY     51  34  52 CALM      30.12R
NEW YORK CITY  SUNNY     55  35  47 VRB7      30.16R
BALTIMORE      PTSUNNY   55  42  61 NE10      30.14R
WASHINGTON DC  PTSUNNY   54  43  66 NE12      30.15R

$$




USA.gov is the U.S. government's official web portal to all federal, state and local government web resources and services.